Погода Буй

Погода Буй : погода сейчас, прогноз погоды и архив. Всё, что Вы хотите узнать о погоде Буй!

Хотите узнать прогноз погоды Буй? Тогда Вам сюда: Погода Буй

Поиск расширенной информации на нашем сайте:

Другие новости

Новости СМИ2

Главная страница сайта

Новости сайта

03.07.2017

Напоминаем, что на нашем специализированном сайте Метеоцентр.Азия вы можете получить высокодетализированные автоматические прогнозы погоды по пунктам России, СНГ и мира в авиационном формате (включающие направление и скорость ветра, видимость, явления погоды, количество и форму облачности, нижнюю и верхнюю границу облачности).


Погода Буй - сегодня

Время (UTC), дата Ветер
(°,м/с) 
Видим.   Явления Облачность Т
(°С)
Тd
(°С)
f(%) Тe
(°С)
Pmin
(гПа)
dP
(гПа)
Po
(мм)
O2
(г/м3)
Тmin Tmax R s Состояние
почвы
15 09.12.17 140 (ЮВ) 10 км  слаб. ливневой снег  10/10 300 м кучево-дожд. 
[Cb cap]
-5.7 -6.8 92 -5  1015.1  1.2  751  310    -5.7     
18 09.12.17 140 (ЮВ) 10 км  слаб. ливневой снег  10/10 300 м кучево-дожд. 
[Cb cap]
-5.3 -6.3 93 -5  1015.5  0.5  752  310           
21 09.12.17 140 (ЮВ) 20000 м  {ливн. осадки}  10/10 300 м кучево-дожд. 
[Cb cap]
-5 -6 93 -6  1016.2  0.7  752  309           
00 10.12.17 140 (ЮВ) 20000 м  слаб. ливневой снег  10/10 300 м кучево-дожд. 
[Cb cap]
-4.8 -5.7 93 -6  1016.5  0.3  752  309           
03 10.12.17 110 (В) 20000 м    10/10 300 м кучево-дожд. 
[Cb cap]
-4.6 -5.6 93 -6  1016.6  752  309  -5.7    0.2  20  равномерный
сухой снег
100% 
06 10.12.17 130 (ЮВ) 21000 м    10/10 300 м кучево-дожд. 
[Cb cap]
-3.9 -4.9 93 -6  1016.3  -0.2  752  308           
09 10.12.17 120 (ЮВ) 50000 м    10/10 300 м кучево-дожд. 
[Cb cap]
-3 -4.1 92 -5  1016.6  0.3  753  307           
12 10.12.17 120 (ЮВ) 50000 м    10/10 300 м кучево-дожд. 
[Cb cap]
-2.6 -3.4 94 -5  1015.5  -1  752  306           
15 10.12.17 120 (ЮВ) 20000 м    10/10 300 м кучево-дожд. 
[Cb cap]
-2.1 -3.2 92 -4  1014.9  -0.6  751  305    -1.9       
18 10.12.17 120 (ЮВ) 20000 м    10/10 600 м кучево-дожд. 
[Cb cap]
-2 -3.1 92 -5  1014.4  -0.5  751  305           
21 10.12.17 120 (ЮВ) 20000 м    10/10 600 м кучево-дожд. 
[Cb cap]
-1.8 -2.8 93 -5  1013.9  -0.4  751  305           
00 11.12.17 140 (ЮВ) 20000 м    10/10 600 м кучево-дожд. 
[Cb cap]
-1 -2.1 92 -4  1013.8  -0.1  751  304           
03 11.12.17 130 (ЮВ) 20000 м    10/10 600 м кучево-дожд. 
[Cb cap]
-0.8 -1.9 92 -3  1013.3  -0.5  750  303  -2.1      20  равномерный
сухой снег
100% 
06 11.12.17 120 (ЮВ) 15000 м    10/10 600 м кучево-дожд. 
[Cb cap]
-1.1 -2.1 93 -3  1013.7  0.4  751  304           
09 11.12.17 130 (ЮВ) 25000 м    10/10 600 м кучево-дожд. 
[Cb cap]
-0.9 -2.2 91 -3  1013.6  -0.2  750  304           
12 11.12.17 120 (ЮВ) 25000 м    10/10 600 м кучево-дожд. 
[Cb cap]
-0.1 -1.6 90 -2  1012.8  -0.7  750  302           
15 11.12.17 120 (ЮВ) 20000 м  в посл. час ливневой снег  10/10 300 м кучево-дожд. 
[Cb cap]
+0.3 -0.9 92 -1  1012.8  750  302    +0.3  0.5     
18 11.12.17 110 (В) 20000 м  {ливн. осадки}  10/10 300 м кучево-дожд. 
[Cb cap]
+0.4 -1.1 90 -1  1012.8  0.1  750  302           
21 11.12.17 100 (В) 20000 м    10/10 300 м кучево-дожд. 
[Cb cap]
-0.2 -1.3 92 -2  1013.2  0.4  750  303           
00 12.12.17 090 (В) 20000 м    10/10 300 м кучево-дожд. 
[Cb cap]
-0.8 -2.3 90 -3  1013.5  0.2  750  304           
03 12.12.17 090 (В) 20000 м    10/10 300 м кучево-дожд. 
[Cb cap]
-0.9 -2.1 92 -3  1014.6  1.1  751  304  -0.9      20  равномерный
сухой снег
100% 
06 12.12.17 090 (В) 18000 м    10/10 300 м кучево-дожд. 
[Cb cap]
-0.9 -2.1 92 1015.9  1.2  752  304  -1         
09 12.12.17 070 (В) 10 км  слаб. ливневой снег  10/10 300 м кучево-дожд. 
[Cb cap]
-0.3 -1.3 93 1016.8  753  304           
12 12.12.17 150 (ЮВ) 15000 м  {ливн. осадки}  10/10 300 м кучево-дожд. 
[Cb cap]
+0 -2.6 83 -1  1017.2  0.4  753  304           
15 12.12.17 140 (ЮВ) 20000 м    10/10 300 м кучево-дожд. 
[Cb cap]
-0.6 -2.8 85 -2  1017.3  0.1  753  304    +0.2  0.4     
Время (UTC), дата Ветер
(°,м/с) 
Видим.   Явления Облачность Т
(°С)
Тd
(°С)
f(%) Тe
(°С)
Pmin
(гПа)
dP
(гПа)
Po
(мм)
O2
(г/м3)
Тmin Tmax R s Состояние
почвы

Для получения пояснительной информации подведите курсор к названию столбца.

ПОГОДА Буй - архив

Всё, что Вы хотите узнать о погоде Буй - удобно и подробно!

Выберите нужную дату (начиная с 1 января 2015* года) и нажмите кнопку "Найти".
Будут отображены архивные сводки погоды по пункту Буй, начиная с указанной даты.


Отображать данные в формате CSV (для использования в таблицах Excel)


Внимание! Наш архив погоды предназначен исключительно для личного некоммерческого использования в познавательных целях. Если Вам необходимы официальные справки о состоянии погоды (для производственных, юридических, коммерческих и т.п. целей), обращайтесь в органы Росгидромета.

*Примечание: данная дата относится к архиву по метеостанциям СССР (Россия, СНГ, Балтия).
Архив по метеостанциям Зарубежной Европы и Азии (кроме Китая) хранится 10 дней, по другим регионам земного шара (Китай, Африка, Америка, Австралия, Океания) - 1 день.

Буй - район местоположения метеостанции


Название, широта, долгота, высота метеостанции:
Буй 58.5°ш. 41.5°д. 103 м над ур. моря [Российская Федерация]

Дополнительная информация

В oтличие oт бoльшинства пoгoдных сайтoв мы публикуем пoдрoбную метеoинфoрмацию в детальнoм прoфессиoнальнoм фoрмате.

Характеристики температуры и влажнoсти вoздуха измеряются на высoте 2 м в тени вдали oт зданий и деревьев.
Скoрoсть ветра измеряется на высoте 10 м (на урoвне рoста челoвека скoрoсть ветра ниже в 1.5-2 раза). Если метеoстанция нахoдится в гoрoде или в лесу, тo скoрoсть ветра занижена на 2-4 м/с пo сравнению с oткрытым местoм. Скoрoсть ветра над акватoриями крупных рек и oзёр, а также на вершинах хoлмoв на 2-5 м/с выше, чем в oбычных услoвиях.
Атмoсфернoе давление в разных тoчках местнoсти мoжет значительнo oтличаться oт давления на метеoстанции, в зависимoсти oт услoвий рельефа (при пoдъёме на 10 м давление пoнижается примернo на 1 мм рт.ст.).